Weather History for Peoria, IL

Change the Weather History Date:

Tuesday, May 28, 2013

  Actual Average Record
Temperature  
Mean Temperature 71 °F 66 °F  
Max Temperature 77 °F 77 °F 94 °F (2006)
Min Temperature 64 °F 55 °F 36 °F (1907)
Degree Days  
Heating Degree Days 0 2  
Month to date heating degree days 121 141  
Since 1 July heating degree days 5813 5806  
Cooling Degree Days 6 4  
Month to date cooling degree days 76 55  
Year to date cooling degree days 85 69  
Growing Degree Days 20 (Base 50)    
Moisture  
Dew Point 65 °F    
Average Humidity 83    
Maximum Humidity 93    
Minimum Humidity 73    
Precipitation  
Precipitation 0.35 in 0.13 in 4.50 in (1915)
Month to date precipitation 8.59 3.95  
Year to date precipitation 25.70 13.95  
Snow  
Snow 0.00 in 0.00 in 0.00 in ()
Month to date snowfall 0.0 0.0  
Since 1 July snowfall 22.7 24.6  
Snow Depth 0.00 in    
Sea Level Pressure  
Sea Level Pressure 29.80 in    
Wind  
Wind Speed 13 mph (SSW)    
Max Wind Speed 28 mph    
Max Gust Speed 36 mph    
Visibility 9 miles    
Events Rain , Thunderstorm    
T = Trace of Precipitation, MM = Missing Value Source: NWS Daily Summary

Daily Weather History Graph

Daily Weather History Graph

Search for Another Location

Airport:

Trip Planner

Search our weather history database for the weather conditions in past years. The results will help you decide how hot, cold, wet, or windy it might be!

Date:

Astronomy

May. 28, 2013 Rise Set
Actual Time 5:31 AM CDT 8:20 PM CDT
Civil Twilight 4:59 AM CDT 8:53 PM CDT
Nautical Twilight 4:18 AM CDT 9:33 PM CDT
Astronomical Twilight 3:32 AM CDT 10:20 PM CDT
Moon 11:43 PM CDT (5/28) 9:20 AM CDT (5/28)
Length of Visible Light 15h 53m
Length of Day
14h 49m
Waning Gibbous, 82% of the Moon is Illuminated
May 28
Waning Gibbous
May 31
Last Quarter
Jun 8
New
Jun 16
First Quarter
Jun 23
Full

Hourly Weather History & Observations

Time (CDT) Temp. Dew Point Humidity Pressure Visibility Wind Dir Wind Speed Gust Speed Precip Events Conditions
12:54 AM 66.0 °F 61.0 °F 84% 29.81 in 10.0 mi South 11.5 mph - N/A   Overcast
1:54 AM 64.9 °F 61.0 °F 87% 29.79 in 10.0 mi South 13.8 mph - N/A   Clear
2:54 AM 64.9 °F 62.1 °F 90% 29.78 in 10.0 mi South 13.8 mph - N/A   Clear
3:54 AM 64.9 °F 62.1 °F 90% 29.76 in 10.0 mi South 8.1 mph - N/A   Clear
4:54 AM 64.4 °F 62.6 °F 94% 29.80 in 10.0 mi South 9.2 mph - N/A   Clear
5:35 AM 66.9 °F 63.0 °F 87% 29.82 in 8.0 mi SW 11.5 mph - N/A Rain Light Rain
5:48 AM 66.2 °F 64.4 °F 94% 29.83 in 7.0 mi SW 16.1 mph - 0.04 in Rain , Thunderstorm Light Thunderstorms and Rain
5:54 AM 66.9 °F 64.0 °F 90% 29.82 in 6.0 mi SW 12.7 mph - 0.05 in Rain , Thunderstorm Light Thunderstorms and Rain
6:37 AM 66.9 °F 64.0 °F 90% 29.84 in 4.0 mi SW 17.3 mph 29.9 mph 0.08 in Rain Rain
6:54 AM 66.9 °F 64.0 °F 90% 29.79 in 5.0 mi SSW 16.1 mph - 0.11 in Rain Light Rain
7:54 AM 66.0 °F 63.0 °F 90% 29.73 in 5.0 mi South 24.2 mph 31.1 mph 0.07 in Rain Rain
8:54 AM 66.9 °F 64.0 °F 90% 29.80 in 10.0 mi SSW 15.0 mph - 0.01 in Rain Light Rain
9:04 AM 66.9 °F 64.0 °F 90% 29.81 in 6.0 mi SSW 11.5 mph - 0.01 in Rain , Thunderstorm Thunderstorms and Rain
9:38 AM 69.1 °F 66.0 °F 90% 29.81 in 9.0 mi SSW 9.2 mph - 0.02 in   Overcast
9:54 AM 70.0 °F 66.0 °F 87% 29.80 in 8.0 mi SSW 10.4 mph - 0.02 in   Overcast
10:54 AM 73.0 °F 66.9 °F 81% 29.76 in 10.0 mi SSW 18.4 mph 27.6 mph N/A   Overcast
11:54 AM 75.0 °F 66.0 °F 73% 29.77 in 10.0 mi SSW 23.0 mph 28.8 mph N/A   Overcast
12:54 PM 75.9 °F 66.9 °F 74% 29.76 in 10.0 mi SSW 18.4 mph 24.2 mph N/A   Overcast
1:54 PM 75.0 °F 66.0 °F 73% 29.77 in 10.0 mi SSW 15.0 mph 23.0 mph N/A   Overcast
2:36 PM 75.0 °F 66.0 °F 73% 29.79 in 10.0 mi SW 18.4 mph 27.6 mph N/A   Overcast
2:54 PM 75.9 °F 66.9 °F 74% 29.77 in 10.0 mi SW 21.9 mph 32.2 mph N/A   Overcast
3:54 PM 75.0 °F 66.9 °F 76% 29.79 in 10.0 mi SW 18.4 mph 25.3 mph N/A   Overcast
4:54 PM 75.0 °F 68.0 °F 79% 29.79 in 10.0 mi SW 15.0 mph - N/A   Overcast
5:38 PM 75.0 °F 68.0 °F 79% 29.78 in 10.0 mi SW 10.4 mph - N/A   Overcast
5:54 PM 75.0 °F 68.0 °F 79% 29.76 in 10.0 mi SSW 10.4 mph - N/A   Overcast
6:54 PM 75.9 °F 69.1 °F 79% 29.78 in 9.0 mi SW 11.5 mph - N/A   Mostly Cloudy
7:54 PM 73.0 °F 64.9 °F 76% 29.79 in 10.0 mi NNW 4.6 mph - 0.00 in   Mostly Cloudy
8:54 PM 68.0 °F 62.1 °F 81% 29.79 in 10.0 mi NE 5.8 mph - N/A   Scattered Clouds
9:38 PM 68.0 °F 62.1 °F 81% 29.84 in 10.0 mi Calm Calm - N/A   Clear
9:54 PM 66.9 °F 63.0 °F 87% 29.84 in 10.0 mi Calm Calm - 0.00 in Rain Light Rain
10:54 PM 66.9 °F 64.0 °F 90% 29.85 in 10.0 mi ESE 3.5 mph - 0.02 in   Overcast
11:54 PM 69.1 °F 63.0 °F 81% 29.92 in 9.0 mi West 16.1 mph - 0.00 in Rain , Thunderstorm Thunderstorms and Rain